Ramona, CA

12:42 AM PDT on September 18, 2019 (GMT -0700)
Ramona

Weather History for KRNM - August, 2019

Change the Weather History Date:

Sunday, August 18, 2019

  Actual Average Record
Temperature  
Mean Temperature 71 °F 74 °F  
Max Temperature 87 °F 91 °F 98 °F (2007)
Min Temperature 54 °F 58 °F 42 °F (1974)
Degree Days  
Heating Degree Days 0 0  
Month to date heating degree days 0 0  
Since 1 June heating degree days 2 29  
Since 1 July heating degree days 0 2  
Cooling Degree Days 6 9  
Month to date cooling degree days 160 161  
Year to date cooling degree days 589 496  
Since 1 June cooling degree days 574 469  
Growing Degree Days 20 (Base 50)    
Moisture  
Dew Point 56 °F    
Average Humidity 65    
Maximum Humidity 93    
Minimum Humidity 37    
Precipitation  
Precipitation 0.00 in 0.00 in 0.32 in (1983)
Month to date precipitation 0.00 0.07  
Year to date precipitation 15.31 11.53  
Sea Level Pressure  
Sea Level Pressure 29.89 in    
Wind  
Wind Speed 5 mph (WNW)    
Max Wind Speed 13 mph    
Max Gust Speed 18 mph    
Visibility 8 miles    
Events      
T = Trace of Precipitation, MM = Missing Value Source: NWS Daily Summary

Daily Weather History Graph

Daily Weather History Graph

Search for Another Location

Airport or City:

Astronomy

Aug. 18, 2019 Rise Set
Actual Time 6:12 AM PDT 7:29 PM PDT
Civil Twilight 5:46 AM PDT 7:55 PM PDT
Nautical Twilight 5:15 AM PDT 8:26 PM PDT
Astronomical Twilight 4:43 AM PDT 8:58 PM PDT
Moon 9:35 PM PDT 8:54 AM PDT
Length of Visible Light 14h 09m
Length of Day
13h 17m
Waning Gibbous, 91% of the Moon is Illuminated
Aug 18
Waning Gibbous
Aug 23
Last Quarter
Aug 30
New
Sep 5
First Quarter
Sep 13
Full

Hourly Weather History & Observations

Time (PDT) Temp. Heat Index Dew Point Humidity Pressure Visibility Wind Dir Wind Speed Gust Speed Precip Events Conditions
12:48 AM 55.4 °F - 53.6 °F 94% 29.91 in 5.0 mi Calm Calm - N/A   Scattered Clouds
12:53 AM 54.0 °F - 52.0 °F 93% 29.87 in 4.0 mi West 3.5 mph - N/A   Mostly Cloudy
1:28 AM 59.0 °F - 55.9 °F 90% 29.91 in 9.0 mi Calm Calm - N/A   Overcast
1:53 AM 59.0 °F - 57.0 °F 93% 29.87 in 9.0 mi Calm Calm - N/A   Overcast
2:48 AM 59.0 °F - 57.2 °F 94% 29.91 in 2.0 mi Calm Calm - N/A   Overcast
2:53 AM 59.0 °F - 57.0 °F 93% 29.86 in 2.5 mi Calm Calm - N/A   Overcast
3:11 AM 57.9 °F - 57.0 °F 97% 29.90 in 3.0 mi Calm Calm - N/A   Overcast
3:20 AM 59.0 °F - 57.0 °F 93% 29.90 in 2.0 mi Calm Calm - N/A   Overcast
3:32 AM 59.0 °F - 57.0 °F 93% 29.90 in 3.0 mi Calm Calm - N/A   Overcast
3:53 AM 59.0 °F - 57.0 °F 93% 29.86 in 2.5 mi Calm Calm - N/A   Overcast
4:03 AM 59.0 °F - 57.0 °F 93% 29.90 in 4.0 mi SSW 3.5 mph - N/A   Overcast
4:53 AM 57.9 °F - 55.9 °F 93% 29.86 in 5.0 mi Calm Calm - N/A   Overcast
5:53 AM 59.0 °F - 55.0 °F 87% 29.87 in 8.0 mi Calm Calm - N/A   Unknown
6:16 AM 59.0 °F - 55.0 °F 87% 29.91 in 9.0 mi Calm Calm - N/A   Overcast
6:53 AM 59.0 °F - 55.0 °F 87% 29.89 in 9.0 mi Calm Calm - N/A   Overcast
7:53 AM 60.1 °F - 55.0 °F 83% 29.91 in 10.0 mi Calm Calm - N/A   Overcast
8:19 AM 62.1 °F - 55.0 °F 78% 29.94 in 10.0 mi Calm Calm - N/A   Scattered Clouds
8:53 AM 64.9 °F - 55.0 °F 70% 29.92 in 10.0 mi North 3.5 mph - N/A   Scattered Clouds
9:53 AM 72.0 °F - 54.0 °F 53% 29.91 in 10.0 mi NW 5.8 mph - N/A   Clear
10:53 AM 75.9 °F - 55.9 °F 50% 29.91 in 10.0 mi WNW 8.1 mph - N/A   Clear
11:53 AM 80.1 °F 80.2 °F 55.9 °F 43% 29.91 in 10.0 mi West 9.2 mph - N/A   Clear
12:53 PM 82.9 °F 82.1 °F 55.9 °F 39% 29.90 in 10.0 mi Variable 6.9 mph - N/A   Clear
1:53 PM 86.0 °F 84.9 °F 57.0 °F 37% 29.88 in 10.0 mi NW 9.2 mph 18.4 mph N/A   Clear
2:53 PM 86.0 °F 85.0 °F 57.9 °F 38% 29.86 in 10.0 mi WNW 9.2 mph - N/A   Clear
3:53 PM 84.0 °F 83.5 °F 57.9 °F 41% 29.85 in 10.0 mi West 10.4 mph - N/A   Clear
4:53 PM 82.0 °F 82.0 °F 57.9 °F 44% 29.85 in 10.0 mi NW 10.4 mph - N/A   Clear
5:53 PM 79.0 °F - 57.9 °F 48% 29.85 in 10.0 mi West 10.4 mph - N/A   Clear
6:53 PM 73.9 °F - 57.9 °F 57% 29.85 in 10.0 mi West 8.1 mph - N/A   Clear
7:53 PM 66.0 °F - 55.9 °F 70% 29.87 in 10.0 mi West 6.9 mph - N/A   Clear
8:53 PM 61.0 °F - 54.0 °F 78% 29.89 in 10.0 mi West 4.6 mph - N/A   Clear
9:53 PM 59.0 °F - 54.0 °F 83% 29.90 in 10.0 mi West 5.8 mph - N/A   Clear
10:53 PM 57.9 °F - 54.0 °F 87% 29.91 in 10.0 mi WNW 3.5 mph - N/A   Clear
11:53 PM 59.0 °F - 55.0 °F 87% 29.90 in 10.0 mi Calm Calm - N/A   Clear